DW3656 Weather Reports


time (UTC)temp
C
wind
direction
speed
KPH
gust
KPH
rain 1hr
cm
rain 24hr
cm
rain mn
cm
humidity
%
barometer
mb
20260508122105 17 333 3.2 3.2 0.00 0.00 0.00 1014.6
20260508121605 17 329 8.0 11.3 0.00 0.00 0.00 1014.6
20260508120604 17 329 4.8 14.5 0.00 0.00 0.00 1014.6
20260508120104 17 328 8.0 11.3 0.00 0.00 0.00 1014.5
20260508115605 16 327 4.8 8.0 0.00 0.00 0.00 1014.5
20260508115104 16 327 9.7 11.3 0.00 0.00 0.00 1014.5
20260508114604 16 327 4.8 8.0 0.00 0.00 0.00 1014.5
20260508113605 16 326 4.8 8.0 0.00 0.00 0.00 1014.5
20260508113104 16 325 3.2 8.0 0.00 0.00 0.00 1014.5
20260508112604 16 327 3.2 8.0 0.00 0.00 0.00 1014.5
20260508112104 16 326 4.8 8.0 0.00 0.00 0.00 1014.5
20260508111604 16 324 3.2 3.2 0.00 0.00 0.00 1014.5
20260508111104 16 326 3.2 3.2 0.00 0.00 0.00 1014.5
20260508110604 16 326 4.8 8.0 0.00 0.00 0.00 1014.5
20260508110105 16 324 3.2 8.0 0.00 0.00 0.00 1014.8
20260508105604 16 324 8.0 8.0 0.00 0.00 0.00 1014.8
20260508105103 16 325 4.8 8.0 0.00 0.00 0.00 1014.8
20260508104604 15 326 8.0 11.3 0.00 0.00 0.00 1014.8
20260508104104 15 325 0.0 11.3 0.00 0.00 0.00 1014.8
20260508103604 15 325 8.0 8.0 0.00 0.00 0.00 1014.8
20260508103104 15 323 3.2 8.0 0.00 0.00 0.00 1014.8
20260508102604 15 326 4.8 8.0 0.00 0.00 0.00 1014.8
20260508101603 15 326 3.2 8.0 0.00 0.00 0.00 1014.8
20260508101105 15 325 8.0 8.0 0.00 0.00 0.00 1014.8
20260508100605 15 324 3.2 8.0 0.00 0.00 0.00 1014.8
20260508100105 15 325 4.8 8.0 0.00 0.00 0.00 1014.4
20260508095604 15 323 8.0 8.0 0.00 0.00 0.00 1014.4
20260508095104 15 324 8.0 8.0 0.00 0.00 0.00 1014.4
20260508094604 15 324 3.2 8.0 0.00 0.00 0.00 1014.4
20260508094105 14 324 8.0 8.0 0.00 0.00 0.00 1014.4
20260508093604 14 324 3.2 8.0 0.00 0.00 0.00 1014.4
20260508093104 14 322 4.8 8.0 0.00 0.00 0.00 1014.4
20260508092604 14 324 3.2 3.2 0.00 0.00 0.00 1014.4
20260508092106 14 323 8.0 8.0 0.00 0.00 0.00 1014.4
20260508091604 14 321 4.8 8.0 0.00 0.00 0.00 1014.4
20260508090606 13 319 8.0 8.0 0.00 0.00 0.00 1014.4
20260508090104 13 317 4.8 8.0 0.00 0.00 0.00 1014.2
20260508085606 13 314 8.0 8.0 0.00 0.00 0.00 1014.2
20260508085104 13 313 1.6 3.2 0.00 0.00 0.00 1014.2
20260508070604 11 298 0.0 3.2 0.00 0.00 0.00 1013.9
20260508070104 11 297 0.0 0.0 0.00 0.00 0.00 1013.3
20260508065604 11 296 0.0 0.0 0.00 0.00 0.00 1013.3
20260508065105 11 296 0.0 0.0 0.00 0.00 0.00 1013.3
20260508064603 11 295 0.0 0.0 0.00 0.00 0.00 1013.3
20260508064104 10 294 0.0 0.0 0.00 0.00 0.00 1013.3
20260508063604 10 294 0.0 0.0 0.00 0.00 0.00 1013.3
20260508063104 10 292 0.0 0.0 0.00 0.00 0.00 1013.3
20260508062604 10 292 0.0 0.0 0.00 0.00 0.00 1013.3
20260508062105 10 291 0.0 0.0 0.00 0.00 0.00 1013.3
20260508061604 10 291 0.0 0.0 0.00 0.00 0.00 1013.3
20260508061105 10 291 0.0 0.0 0.00 0.00 0.00 1013.3
20260508060603 10 290 3.2 3.2 0.00 0.00 0.00 1013.3
20260508060103 9 290 0.0 3.2 0.00 0.00 0.00 1012.8
20260508055604 9 289 0.0 0.0 0.00 0.00 0.00 1012.8
20260508055104 9 290 1.6 3.2 0.00 0.00 0.00 1012.8
20260508054604 9 289 3.2 8.0 0.00 0.00 0.00 1012.8
20260508053604 9 288 0.0 3.2 0.00 0.00 0.00 1012.8
20260508053104 9 288 1.6 8.0 0.00 0.00 0.00 1012.8
20260508052604 9 288 4.8 8.0 0.00 0.00 0.00 1012.8
20260508052104 8 288 1.6 8.0 0.00 0.00 0.00 1012.8
20260508051104 8 287 3.2 8.0 0.00 0.00 0.00 1012.8
20260508050603 8 288 8.0 8.0 0.00 0.00 0.00 1012.8
20260508050104 8 287 3.2 3.2 0.00 0.00 0.00 1012.6
20260508045604 8 288 3.2 3.2 0.00 0.00 0.00 1012.6
20260508044605 8 288 4.8 8.0 0.00 0.00 0.00 1012.6
20260508044105 8 288 4.8 8.0 0.00 0.00 0.00 1012.6
20260508043604 8 289 3.2 3.2 0.00 0.00 0.00 1012.6
20260508043105 8 289 1.6 3.2 0.00 0.00 0.00 1012.6
20260508042604 9 289 3.2 3.2 0.00 0.00 0.00 1012.6
20260508042103 9 290 3.2 3.2 0.00 0.00 0.00 1012.6
20260508041606 9 289 3.2 8.0 0.00 0.00 0.00 1012.6
20260508040604 9 289 8.0 8.0 0.00 0.00 0.00 1012.6
20260508040104 9 289 3.2 3.2 0.00 0.00 0.00 1012.6
20260508035104 9 290 3.2 11.3 0.00 0.00 0.00 1012.6
20260508034606 9 290 8.0 11.3 0.00 0.00 0.00 1012.6
20260508034104 9 290 4.8 8.0 0.00 0.00 0.00 1012.6
20260508033603 9 290 3.2 3.2 0.00 0.00 0.00 1012.6
20260508033104 9 290 3.2 8.0 0.00 0.00 0.00 1012.6
20260508032604 9 290 3.2 8.0 0.00 0.00 0.00 1012.6
20260508031604 10 290 1.6 3.2 0.00 0.00 0.00 1012.6
20260508030605 10 290 1.6 3.2 0.00 0.00 0.00 1012.6
20260508030105 10 290 3.2 8.0 0.00 0.00 0.00 1012.5
20260508025604 10 290 4.8 8.0 0.00 0.00 0.00 1012.5
20260508025104 10 290 3.2 3.2 0.00 0.00 0.00 1012.5
20260508024604 10 290 1.6 8.0 0.00 0.00 0.00 1012.5
20260508022604 10 290 0.0 0.0 0.00 0.00 0.00 1012.5
20260508022104 10 291 8.0 8.0 0.00 0.00 0.00 1012.5
20260508021603 10 290 0.0 3.2 0.00 0.00 0.00 1012.5
20260508020605 10 290 0.0 0.0 0.00 0.00 0.00 1012.5
20260508020104 10 291 1.6 3.2 0.00 0.00 0.00 1012.5
20260508015603 10 290 3.2 3.2 0.00 0.00 0.00 1012.5
20260508015104 10 290 0.0 3.2 0.00 0.00 0.00 1012.5
20260508014603 10 290 3.2 3.2 0.00 0.00 0.00 1012.5
20260508013604 10 290 1.6 3.2 0.00 0.00 0.00 1012.5
20260508013104 10 290 3.2 3.2 0.00 0.00 0.00 1012.5
20260508012103 10 290 3.2 3.2 0.00 0.00 0.00 1012.5
20260508011604 10 290 1.6 3.2 0.00 0.00 0.00 1012.5
20260508011104 10 290 0.0 3.2 0.00 0.00 0.00 1012.5
20260508010604 10 290 0.0 0.0 0.00 0.00 0.00 1012.5
20260508005604 10 290 0.0 3.2 0.00 0.00 0.00 1012.5
20260508005103 10 290 8.0 8.0 0.00 0.00 0.00 1012.5
20260508004604 10 289 1.6 3.2 0.00 0.00 0.00 1012.5
20260508003604 10 289 1.6 3.2 0.00 0.00 0.00 1012.5
20260508002603 10 290 3.2 8.0 0.00 0.00 0.00 1012.5
20260508002105 10 289 8.0 8.0 0.00 0.00 0.00 1012.5
20260508001604 10 290 8.0 8.0 0.00 0.00 0.00 1012.5
20260508000604 10 289 8.0 8.0 0.00 0.00 0.00 1012.5
20260508000104 9 289 3.2 8.0 0.00 0.00 0.00 1012.2
20260507235603 9 288 4.8 8.0 0.00 0.00 0.00 1012.2
20260507235104 9 288 4.8 8.0 0.00 0.00 0.00 1012.2
20260507234604 9 289 8.0 8.0 0.00 0.00 0.00 1012.2
20260507234104 9 288 8.0 8.0 0.00 0.00 0.00 1012.2
20260507233104 9 288 4.8 8.0 0.00 0.00 0.00 1012.2
20260507232604 9 288 9.7 11.3 0.00 0.00 0.00 1012.2
20260507232105 9 288 8.0 8.0 0.00 0.00 0.00 1012.2
20260507231604 8 288 3.2 8.0 0.00 0.00 0.00 1012.2
20260507231103 9 289 4.8 8.0 0.00 0.00 0.00 1012.2
20260507230604 9 288 3.2 8.0 0.00 0.00 0.00 1012.2
20260507230104 9 289 4.8 8.0 0.00 0.00 0.00 1012.2
20260507225605 9 289 4.8 8.0 0.00 0.00 0.00 1012.2
20260507225104 9 289 3.2 8.0 0.00 0.00 0.00 1012.2
20260507224604 9 290 4.8 8.0 0.00 0.00 0.00 1012.2
20260507224104 9 290 3.2 8.0 0.00 0.00 0.00 1012.2
20260507223605 9 290 4.8 8.0 0.00 0.00 0.00 1012.2
20260507223106 9 290 3.2 8.0 0.00 0.00 0.00 1012.2
20260507222104 10 290 8.0 8.0 0.00 0.00 0.00 1012.2
20260507220605 10 292 3.2 8.0 0.00 0.00 0.00 1012.2
20260507215605 10 292 3.2 3.2 0.00 0.00 0.00 1012.2
20260507215104 10 293 4.8 8.0 0.00 0.00 0.00 1012.2
20260507214605 10 293 4.8 8.0 0.00 0.00 0.00 1012.2
20260507214104 10 292 4.8 8.0 0.00 0.00 0.00 1012.2
20260507213604 10 293 3.2 8.0 0.00 0.00 0.00 1012.2
20260507213105 10 293 1.6 8.0 0.00 0.00 0.00 1012.2
20260507212604 10 293 3.2 3.2 0.00 0.00 0.00 1012.2
20260507211604 10 294 1.6 3.2 0.00 0.00 0.00 1012.2
20260507211104 10 293 3.2 3.2 0.00 0.00 0.00 1012.2
20260507210604 10 293 1.6 3.2 0.00 0.00 0.00 1012.2
20260507210105 10 294 4.8 8.0 0.00 0.00 0.00 1011.5
20260507205604 10 293 4.8 8.0 0.00 0.00 0.00 1011.5
20260507205105 10 294 4.8 8.0 0.00 0.00 0.00 1011.5
20260507204604 10 294 3.2 3.2 0.00 0.00 0.00 1011.5
20260507204104 11 294 3.2 3.2 0.00 0.00 0.00 1011.5
20260507203605 10 294 3.2 3.2 0.00 0.00 0.00 1011.5
20260507203104 11 294 4.8 8.0 0.00 0.00 0.00 1011.5
20260507202604 11 295 3.2 3.2 0.00 0.00 0.00 1011.5
20260507202105 11 294 4.8 8.0 0.00 0.00 0.00 1011.5
20260507201104 11 294 4.8 8.0 0.00 0.00 0.00 1011.5
20260507200604 11 295 1.6 8.0 0.00 0.00 0.00 1011.5
20260507195605 11 296 1.6 3.2 0.00 0.00 0.00 1011.3
20260507195104 11 295 3.2 3.2 0.00 0.00 0.00 1011.3
20260507194604 11 296 3.2 3.2 0.00 0.00 0.00 1011.3
20260507194104 11 296 4.8 8.0 0.00 0.00 0.00 1011.3
20260507193603 11 296 3.2 3.2 0.00 0.00 0.00 1011.3
20260507192104 11 298 1.6 3.2 0.00 0.00 0.00 1011.3
20260507191604 11 298 0.0 3.2 0.00 0.00 0.00 1011.3
20260507191103 11 297 1.6 3.2 0.00 0.00 0.00 1011.3
20260507190604 12 299 0.0 0.0 0.00 0.00 0.00 1011.3
20260507190105 12 299 0.0 0.0 0.00 0.00 0.00 1011.2
20260507185603 12 300 0.0 0.0 0.00 0.00 0.00 1011.2
20260507185104 12 300 0.0 0.0 0.00 0.00 0.00 1011.2
20260507184604 12 301 0.0 0.0 0.00 0.00 0.00 1011.2
20260507184104 12 301 0.0 0.0 0.00 0.00 0.00 1011.2
20260507183604 12 302 0.0 3.2 0.00 0.00 0.00 1011.2
20260507183104 12 302 1.6 8.0 0.00 0.00 0.00 1011.2
20260507182604 12 303 4.8 8.0 0.00 0.00 0.00 1011.2
20260507182104 12 303 3.2 8.0 0.00 0.00 0.00 1011.2
20260507181105 12 304 3.2 3.2 0.00 0.00 0.00 1011.2
20260507180604 13 303 0.0 8.0 0.00 0.00 0.00 1011.2
20260507175603 13 306 3.2 3.2 0.00 0.00 0.00 1011.2
20260507175104 13 306 8.0 8.0 0.00 0.00 0.00 1011.2
20260507174603 13 305 0.0 8.0 0.00 0.00 0.00 1011.2
20260507174105 13 307 4.8 8.0 0.00 0.00 0.00 1011.2
20260507173604 13 308 4.8 8.0 0.00 0.00 0.00 1011.2
20260507173104 13 306 1.6 3.2 0.00 0.00 0.00 1011.2
20260507172104 13 309 0.0 0.0 0.00 0.00 0.00 1011.2
20260507171604 13 310 0.0 0.0 0.00 0.00 0.00 1011.2
20260507171104 13 310 0.0 0.0 0.00 0.00 0.00 1011.2
20260507170603 13 311 0.0 0.0 0.00 0.00 0.00 1011.2
20260507170104 14 311 0.0 0.0 0.00 0.00 0.00 1011.6
20260507165604 14 310 0.0 0.0 0.00 0.00 0.00 1011.6
20260507165104 14 313 0.0 3.2 0.00 0.00 0.00 1011.6
20260507164604 14 313 3.2 3.2 0.00 0.00 0.00 1011.6
20260507164104 14 313 0.0 3.2 0.00 0.00 0.00 1011.6
20260507163603 14 315 1.6 3.2 0.00 0.00 0.00 1011.6
20260507163104 14 316 0.0 0.0 0.00 0.00 0.00 1011.6
20260507162604 14 317 1.6 3.2 0.00 0.00 0.00 1011.6
20260507162104 15 318 1.6 3.2 0.00 0.00 0.00 1011.6
20260507161104 15 316 0.0 3.2 0.00 0.00 0.00 1011.6
20260507160604 15 317 1.6 8.0 0.00 0.00 0.00 1011.6
20260507160105 15 320 9.7 11.3 0.00 0.00 0.00 1011.8
20260507155606 15 320 4.8 8.0 0.00 0.00 0.00 1011.8
20260507155104 15 322 8.0 8.0 0.00 0.00 0.00 1011.8
20260507154604 15 322 4.8 8.0 0.00 0.00 0.00 1011.8
20260507153604 15 322 8.0 8.0 0.00 0.00 0.00 1011.8
20260507153106 15 322 3.2 8.0 0.00 0.00 0.00 1011.8
20260507152604 15 319 4.8 8.0 0.00 0.00 0.00 1011.8
20260507152104 15 318 1.6 3.2 0.00 0.00 0.00 1011.8
20260507151604 15 319 4.8 11.3 0.00 0.00 0.00 1011.8
20260507151104 15 319 9.7 11.3 0.00 0.00 0.00 1011.8
20260507150104 15 320 1.6 8.0 0.00 0.00 0.00 1012.3
20260507145604 15 317 11.3 11.3 0.00 0.00 0.00 1012.3
20260507144604 14 316 8.0 8.0 0.00 0.00 0.00 1012.3
20260507144104 14 318 3.2 11.3 0.00 0.00 0.00 1012.3
20260507143103 14 316 4.8 8.0 0.00 0.00 0.00 1012.3
20260507142604 14 315 8.0 8.0 0.00 0.00 0.00 1012.3
20260507142104 14 315 9.7 11.3 0.00 0.00 0.00 1012.3
20260507141604 14 314 8.0 11.3 0.00 0.00 0.00 1012.3
20260507141104 14 313 0.0 8.0 0.00 0.00 0.00 1012.3
20260507140104 13 310 8.0 11.3 0.00 0.00 0.00 1012.6
20260507135604 13 310 4.8 8.0 0.00 0.00 0.00 1012.6
20260507135104 13 308 8.0 11.3 0.00 0.00 0.00 1012.6
20260507134605 13 308 9.7 11.3 0.00 0.00 0.00 1012.6
20260507134104 13 307 11.3 11.3 0.00 0.00 0.00 1012.6
20260507133604 13 306 3.2 3.2 0.00 0.00 0.00 1012.6
20260507133105 12 306 3.2 8.0 0.00 0.00 0.00 1012.6
20260507132604 12 304 4.8 8.0 0.00 0.00 0.00 1012.6
20260507132105 12 303 8.0 11.3 0.00 0.00 0.00 1012.6
20260507131604 12 303 8.0 8.0 0.00 0.00 0.00 1012.6
20260507131104 12 303 8.0 11.3 0.00 0.00 0.00 1012.6
20260507130604 12 303 8.0 11.3 0.00 0.00 0.00 1012.6
20260507124605 12 304 3.2 11.3 0.00 0.00 0.00 1012.5
20260507124104 12 304 4.8 11.3 0.00 0.00 0.00 1012.5
20260507123104 12 304 8.0 14.5 0.00 0.00 0.00 1012.5
20260507122604 12 305 11.3 14.5 0.00 0.00 0.00 1012.5